Weather History for Vacaville, CA

Change the Weather History Date:

Saturday, November 8, 2014

  Actual Average Record
Temperature  
Mean Temperature 62 °F -  
Max Temperature 80 °F 68 °F 84 °F (1950)
Min Temperature 45 °F 43 °F 33 °F (2011)
Degree Days  
Heating Degree Days 2    
Growing Degree Days 12 (Base 50)    
Moisture  
Dew Point 47 °F    
Average Humidity 66    
Maximum Humidity 97    
Minimum Humidity 31    
Precipitation  
Precipitation 0.00 in - - ()
Sea Level Pressure  
Sea Level Pressure 30.08 in    
Wind  
Wind Speed 1 mph (WNW)    
Max Wind Speed 7 mph    
Max Gust Speed -    
Visibility 10 miles    
Events      
Averages and records for this station are not official NWS values.
T = Trace of Precipitation, MM = Missing Value Source: NWS Daily Summary

Daily Weather History Graph

Daily Weather History Graph

Search for Another Location

Airport:

Trip Planner

Search our weather history database for the weather conditions in past years. The results will help you decide how hot, cold, wet, or windy it might be!

Date:

Astronomy

Nov. 08, 2014 Rise Set
Actual Time 6:41 AM PST 5:00 PM PST
Civil Twilight 6:13 AM PST 5:28 PM PST
Nautical Twilight 5:42 AM PST 6:00 PM PST
Astronomical Twilight 5:11 AM PST 6:31 PM PST
Moon 6:47 PM PST (11/8) 8:22 AM PST (11/8)
Length of Visible Light 11h 14m
Length of Day
10h 19m
Waning Gibbous, 96% of the Moon is Illuminated
Nov 8
Waning Gibbous
Nov 14
Last Quarter
Nov 22
New
Nov 29
First Quarter
Dec 6
Full

Hourly Weather History & Observations

Time (PST) Temp. Dew Point Humidity Pressure Visibility Wind Dir Wind Speed Gust Speed Precip Events Conditions
12:53 AM 51.1 °F 46.0 °F 83% 30.10 in 10.0 mi Calm Calm - N/A   Clear
1:53 AM 50.0 °F 46.0 °F 86% 30.10 in 10.0 mi Calm Calm - N/A   Clear
2:53 AM 48.0 °F 45.0 °F 89% 30.10 in 10.0 mi Calm Calm - N/A   Clear
3:53 AM 48.9 °F 45.0 °F 86% 30.10 in 10.0 mi Calm Calm - N/A   Clear
4:53 AM 46.0 °F 44.1 °F 93% 30.12 in 10.0 mi Calm Calm - N/A   Clear
5:53 AM 45.0 °F 44.1 °F 97% 30.12 in 6.0 mi Calm Calm - N/A   Clear
6:53 AM 46.0 °F 43.0 °F 89% 30.14 in 10.0 mi Calm Calm - N/A   Clear
7:53 AM 55.0 °F 50.0 °F 83% 30.14 in 10.0 mi Calm Calm - N/A   Clear
8:53 AM 63.0 °F 48.9 °F 60% 30.15 in 10.0 mi Variable 3.5 mph - N/A   Clear
9:53 AM 69.1 °F 48.9 °F 49% 30.15 in 10.0 mi Variable 3.5 mph - N/A   Clear
10:53 AM 73.0 °F 48.9 °F 42% 30.14 in 10.0 mi North 5.8 mph - N/A   Clear
11:53 AM 75.9 °F 48.9 °F 38% 30.11 in 10.0 mi NNE 5.8 mph - N/A   Clear
12:53 PM 77.0 °F 46.9 °F 34% 30.08 in 10.0 mi Variable 6.9 mph - N/A   Clear
1:53 PM 79.0 °F 46.0 °F 31% 30.05 in 10.0 mi Variable 3.5 mph - N/A   Clear
2:53 PM 80.1 °F 48.0 °F 32% 30.04 in 10.0 mi Variable 4.6 mph - N/A   Clear
3:53 PM 78.1 °F 50.0 °F 37% 30.03 in 10.0 mi Variable 3.5 mph - N/A   Clear
4:53 PM 72.0 °F 50.0 °F 46% 30.03 in 10.0 mi Calm Calm - N/A   Clear
5:53 PM 61.0 °F 48.9 °F 64% 30.03 in 10.0 mi NW 4.6 mph - N/A   Clear
6:53 PM 61.0 °F 48.9 °F 64% 30.03 in 10.0 mi Calm Calm - N/A   Clear
7:53 PM 57.0 °F 48.0 °F 72% 30.03 in 10.0 mi Calm Calm - N/A   Clear
8:53 PM 53.1 °F 46.9 °F 80% 30.03 in 10.0 mi WSW 4.6 mph - N/A   Clear
9:53 PM 54.0 °F 46.0 °F 75% 30.03 in 10.0 mi SW 3.5 mph - N/A   Clear
10:53 PM 53.1 °F 46.9 °F 80% 30.04 in 10.0 mi WSW 3.5 mph - N/A   Clear
11:53 PM 51.1 °F 46.0 °F 83% 30.03 in 10.0 mi Calm Calm - N/A   Clear